Regional Weather Roundup
Issued by NWS

Home | Current Version | Previous Version | Text Only | Print | Product List | Glossary On
Versions: 1 2 3 4 5 6 7 8 9 10 11 12 13 14 15 16 17 18 19 20 21 22 23 24 25 26 27 28 29 30 31 32 33 34 35 36 37 38 39 40 41 42 43 44 45 46 47 48 49 50
000
ASUS43 KIND 281009
RWRIN

WEATHER ROUNDUP FOR INDIANA
NATIONAL WEATHER SERVICE INDIANAPOLIS IN
600 AM EDT WED SEP 28 2016

NOTE: "FAIR" INDICATES FEW OR NO CLOUDS BELOW 12,000 FEET WITH NO
SIGNIFICANT WEATHER AND/OR OBSTRUCTIONS TO VISIBILITY.

* - STATION DOES NOT REPORT WEATHER SUCH AS PRECIPITATION OR FOG.

+ - STATION NOT QUALITY CONTROLLED BY THE NATIONAL WEATHER SERVICE.
    USE DATA WITH CAUTION...ESPECIALLY DEWPOINT AND RELATIVE
    HUMIDITY OBSERVATIONS.

INZ001>003-010>013-019-020-281100-
NORTHWEST INDIANA

CITY           SKY/WX    TMP DP  RH WIND       PRES   REMARKS
GARY /AIRPORT/ LGT RAIN  57  54  88 N12       29.78R
KNOX *+        CLOUDY    50  32  50 CALM      29.76R
LA PORTE +     CLOUDY    54  53  97 CALM      29.76S
MICHIGAN CITY+ CLOUDY    52  48  87 MISG      29.77S
MONTICELLO +   CLOUDY    52  42  69 NW6       29.74F
RENSSELAER +   RAIN      54  50  87 CALM      29.76S
VALPARAISO     CLOUDY    53  45  74 W3        29.77R

$$

LMZ046-743>745-281100-
SOUTHERN LAKE MICHIGAN

STATION/POSITION TIME  TEMP    WIND        PRES    WAVE
                       AIR SEA DIR/SP/G            HT
                 (UTC) (F)     (DEG/KT/KT) (MB)    (FT)
BURNS HARBOR     0900   58      70/ 12/ 14 1008.1F
MICHIGAN CITY    0900   55      40/ 11/ 13   N/A
5NW MICH CITY    1000   58 67   70/ 10/ 12   N/A     2

$$

INZ004-005-014>016-021>024-281100-
NORTH CENTRAL INDIANA

CITY           SKY/WX    TMP DP  RH WIND       PRES   REMARKS
GOSHEN         CLOUDY    50  44  80 N6        29.76S
LOGANSPORT +   MOCLDY    50  46  87 N6        29.76R
PERU/GRISSOM   CLOUDY    55  49  78 S5        29.72S
ROCHESTER +    CLOUDY    55  46  71 NW3       29.76R
SOUTH BEND     CLOUDY    52  48  86 NE5       29.77S
WARSAW +       RAIN      52  34  50 SW3       29.77R

$$

INZ006>009-017-018-025>027-281100-
NORTHEAST INDIANA

CITY           SKY/WX    TMP DP  RH WIND       PRES   REMARKS
ANGOLA *+        N/A     48  36  61 NE3       29.77S
AUBURN +       MOCLDY    52  43  71 E5        29.77F
FORT WAYNE     CLOUDY    54  47  77 SE8       29.75F
HUNTINGTON +   CLOUDY    56  47  72 S3        29.75S
KENDALLVILLE + PTCLDY    49  43  80 E3        29.76S

$$

INZ028-029-035-036-043>045-051>053-281100-
WEST CENTRAL INDIANA

CITY           SKY/WX    TMP DP  RH WIND       PRES   REMARKS
CRAWFORDSVL +  CLOUDY    55  55 100 SE3       29.74F
GREENCASTLE +  CLOUDY    57  55  94 S3        29.76S
LAFAYETTE      CLOUDY    54  51  90 SW3       29.76R
TERRE HAUTE    CLOUDY    61  53  75 S5        29.75F

$$

INZ030>032-037>040-046>048-054>057-064-065-281100-
CENTRAL INDIANA

CITY           SKY/WX    TMP DP  RH WIND       PRES   REMARKS
FISHERS *+     CLOUDY    55  55 100 E3        29.77F
FRANKFORT +    CLOUDY    60  53  80 S3        29.75F
GREENWOOD *+   CLOUDY    57  57 100 CALM      29.78F
INDIANAPOLIS   LGT RAIN  58  54  86 E7        29.76F
-EAGLE CREEK   CLOUDY    58  54  86 SE3       29.76S
MARION +       CLOUDY    56  50  80 S12       29.76F
MT COMFORT *+  CLOUDY    55  54  94 NE3       29.79S
SHELBYVILLE    LGT RAIN  57  53  86 SE6       29.78F
ZIONSVILLE +   DRIZZLE   55  53  91 CALM      29.78S

$$

INZ033-034-041-042-049-050-058-059-281100-
EAST CENTRAL INDIANA

CITY           SKY/WX    TMP DP  RH WIND       PRES   REMARKS
MUNCIE         CLOUDY    58  53  84 S6        29.80S

$$

INZ060-061-067>069-081>083-085>088-281100-
SOUTHWEST INDIANA

CITY           SKY/WX    TMP DP  RH WIND       PRES   REMARKS
EVANSVILLE     CLEAR     59  51  75 SW8       29.82S
HUNTINGBURG *+   N/A     57  48  72 S10       29.82S
WASHINGTON +   PTCLDY    59  53  80 MISG      29.78F

$$

INZ062-063-066-070>080-084-089>092-281100-
SOUTH CENTRAL AND SOUTHEAST INDIANA

CITY           SKY/WX    TMP DP  RH WIND       PRES   REMARKS
BLOOMINGTON    CLOUDY    60  51  72 SW7       29.78S
MADISON *+     PTCLDY    59  46  63 S7        29.84S
NORTH VERNON + CLOUDY    57  55  94 S5        29.81F
SEYMOUR +      CLOUDY    61  50  67 CALM      29.80S

$$





USA.gov is the U.S. government's official web portal to all federal, state and local government web resources and services.